cubair logo

Welcome To CubAir Flight!

Cub Air Flight was founded in 2006, by Steve and Sharon Krog. Cub Air Flight school uses vintage Piper J3 Cub aircraft to instruct in, following a philosophy that “old school is still cool.” Cub Air Flight believes that these fine classic airplanes make better pilots by requiring more attention and flying skill than newer airplanes. We at Cub Air Flight hold that flying a vintage airplane is as much an art as it is a science.

The Piper J3 Cub is revered among aviators as a truly classic and iconic airplane. It has served as a trainer to more pilots than almost any airplane, earning a reputation as easy to fly but yet challenging enough to force students to continually better themselves. Cub Air uses two J3 Cubs, restored and maintained with the same attention to detail as a lovingly restored classic car. Cub Air also uses a Piper Cherokee for training requiring an aircraft with more advanced instruments.

Find Us Here!

Hartford Municipal

Airport (KHXF)
4200 Highway U
Hartford, WI 53027

Our Staff

Steve Krog
Jamie Weber

West Bend Weather

[Source: ADDS]
METAR
KETB 230155Z AUTO 04006KT 10SM CLR 18/09 A2978 RMK AO2 =
TAF

Waukesha Weather

[Source: ADDS]
METAR
KUES 230145Z 03006KT 10SM SCT070 18/09 A2978 =
TAF
KUES 230200Z 2302/2324 03006KT P6SM VCSH SCT070 FM230800 VRB03KT P6SM OVC110 FM231300 35005KT P6SM SCT110 FM232300 04005KT P6SM FEW040 SCT200 =

Juneau Weather

[Source: ADDS]
METAR
KUNU 230155Z AUTO 36003KT 10SM SCT060 OVC120 19/16 A2979 RMK AO2 T01850155 =
TAF

Fond Du Lac Weather

[Source: ADDS]
METAR
KFLD 230153Z AUTO 06010KT 10SM CLR 19/11 A2979 RMK AO2 SLP086 T01940111 =
TAF